Location: Newark
(39.0083°N, 20.7336°E)
Time: 19:55:27
(UTC+00:00)

Nauka - Pass Details

Date: 05 October 2021
Orbit: 417 x 423 km, 51.6° (Epoch: 19 October)

Event Time Altitude Azimuth Distance (km) Brightness Sun altitude
Rises 16:47:15 0° 312° (NW) 2,363 ? -7.4°
Reaches altitude 10° 16:49:25 10° 319° (NW) 1,498 ? -7.8°
Maximum altitude 16:52:39 44° 33° (NNE) 593 ? -8.4°
Enters shadow 16:55:36 12° 106° (ESE) 1,385 ? -9.0°
